Tracking 31027 objects as of 19-Jul-2025
HD Live streaming from Space Station
objects crossing your sky now

VIGORIDE 5

Track VIGORIDE 5 now!
10-day predictions


NORAD ID: 55056
Int'l Code: 2023-001AZ
Perigee: 455.6 km
Apogee: 468.2 km
Inclination: 97.4 °
Period: 93.7 minutes
Semi major axis: 6832 km
RCS: Unknown
Launch date: January 3, 2023
Source: United States (US)
Launch site: AIR FORCE EASTERN TEST RANGE (AFETR)
Your satellite tracking list
No more satellites can be added for tracking (max 5)
FOX-1B (RADFXSAT AO-91)
FOX-1D (AO-92)
FOX-1A (AO-85)
FUNCUBE 1 (AO-73)
SPACE STATION
Track 5 satellite(s)




NASA's NSSDC Master Catalog

Two Line Element Set (TLE):
1 55056U 23001AZ  25199.20057177  .00012813  00000-0  35472-3 0  9991
2 55056  97.3700 260.3386 0009283 193.7412 166.3581 15.37077886140991
Source of the keplerian elements: AFSPC